User: anonymous   Login
Location: Kailua
(21.4020°N, 157.7390°W)
Time: 22:42:28
(UTC-10:00)
Language:

Cosmos 2297 Rocket - Orbit

View from above orbital plane
View from above orbital plane
View from above satellite
View from above satellite

Ground track
Ground track

The orbit data is extracted from the following two-line orbital elements,

1 23405U 94077B   16149.90355119 +.00000111 +00000-0 +81611-4 0  9999
2 23405 070.9829 303.3435 0003618 219.6556 140.4302 14.15179471110897
Epoch (UTC): 28 May 2016 21:41:06
Eccentricity: 0.0003618
inclination: 70.9829°
perigee height: 839 km
apogee height: 844 km
right ascension of ascending node: 303.3435°
argument of perigee: 219.6556°
revolutions per day: 14.15179471
mean anomaly at epoch: 140.4302°
orbit number at epoch: 11089

The dashed part of the orbit path shows where the satellite is in the earth's shadow,  

DLR